Regional Weather Roundup
Issued by NWS Newport/Morehead, NC

Current Version | Previous Version | Graphics & Text | Print | Product List | Glossary Off
Versions: 1 2 3 4 5 6 7 8 9 10 11 12 13 14 15 16 17 18 19 20 21 22 23 24 25 26 27 28 29 30 31 32 33 34 35 36 37 38 39 40 41 42 43 44 45 46 47 48 49 50

000
ASUS42 KMHX 201422
RWRMHX
WEATHER ROUNDUP FOR EASTERN NORTH CAROLINA
NATIONAL WEATHER SERVICE NEWPORT/MOREHEAD CITY NC
1000 AM EDT MON OCT 20 2014

NOTE: "FAIR" INDICATES FEW OR NO CLOUDS BELOW 12,000 FEET
WITH NO SIGNIFICANT WEATHER AND/OR OBSTRUCTIONS TO VISIBILITY

NCZ015>017-031-032-045>047-102-103-201500-
NORTH COAST

CITY           SKY/WX    TMP DP  RH WIND       PRES   REMARKS
EDENTON        SUNNY     61  44  53 S7        30.19S
ELIZABETH CITY MOSUNNY   60  50  69 S3        30.19S
KITTY HAWK     PTSUNNY   63  45  51 W3        30.17F
MANTEO         PTSUNNY   61  44  54 SW3       30.19S

$$

NCZ045>047-081-094-103-104-201500-
CENTRAL COAST

CITY           SKY/WX    TMP DP  RH WIND       PRES   REMARKS
FRISCO         SUNNY     64  47  53 VRB3      30.18F
SWANQUARTER      N/A     66 N/A N/A CALM      30.15S

$$

NCZ095-097-098-100-101-201500-
SOUTHERN COAST

CITY           SKY/WX    TMP DP  RH WIND       PRES   REMARKS
BEAUFORT       SUNNY     63  45  51 N6        30.18F
CEDAR ISLAND     N/A     66 N/A N/A N3        30.21S
JACKSONVILLE   SUNNY     60  45  57 E6        30.17F
PINEY ISLAND   SUNNY     67  41  38 CALM      30.18S
WILMINGTON     SUNNY     62  50  64 CALM      30.17S


$$

NCZ011>013-027>030-043-044-078>080-089-090>093-098-201500-
COASTAL PLAIN

CITY           SKY/WX    TMP DP  RH WIND       PRES   REMARKS
AHOSKIE        MOSUNNY   55  46  71 S3        30.18F
CLINTON        SUNNY     59  47  64 S3        30.18S
ELIZABETHTOWN  SUNNY     61  48  62 SE3       30.17S
GOLDSBORO      SUNNY     58  50  74 CALM      30.16F
GREENVILLE     SUNNY     59  45  58 S5        30.19S
HAVELOCK       MOSUNNY   62  47  57 E6        30.19F
KENANSVILLE    SUNNY     60  45  59 SE5       30.18S
KINSTON        SUNNY     61  45  55 S3        30.18F
NEW BERN       SUNNY     61  49  64 E3        30.19F
RICHLANDS      SUNNY     61  45  55 E6        30.18S
ROCKY MOUNT    SUNNY     56  46  69 S3        30.18S
WASHINGTON     SUNNY     59  45  60 S3        30.18F
WHITEVILLE     SUNNY     62  49  60 CALM      30.16S

$$

AMZ130-135-150-152-154-156-158-170-250-252-270-ANZ085-086-088-633-658-670-201500-
MARINE OBSERVATIONS

STATION/POSITION TIME  TEMP    WIND        PRES    WAVE   SWELL
                       AIR SEA DIR/SP/G            HT/PER HT/PER
                 (UTC) (F)     (DEG/KT/KT) (MB)    (FT/S) (FT/S)
CHESAPEAKE LIGHT 1400   61     220/ 12/ 14 1022.3
64 E VA BEACH    1400   62 69  160/  4/  6 1021.8    3/12   3/12
DUCK             1400   61 68  230/  6/  9 1021.4
2 E DUCK         1400                        N/A     3/13   2/13
10 NE DUCK       1400      71                N/A     3/13   2/13
OREGON INLET     1400   62 66  270/  4/  5 1022.1
13E OREGON INLT  1400      73                N/A     4/12   2/12
HATTERAS CG      1400   63 67   10/  5/  6 1022.2
DIAMOND BUOY     1400   65     320/  6/  8 1022.0    4/11   3/11
17 S OCRACOKE    1300          VRB  4/  4  1021.9
CAPE LOOKOUT     1400   63     360/  7/  9 1021.6
BEAUFORT LAB     1400   62 69   40/  5/  7 1021.1
30 SE NEW RIVER  1400   67 76   60/  2/  6 1021.2    2/11   2/11
5 SE WRIGHTSVLE  1400   65 73  190/  6/  6   N/A
225 S CAPE HAT   1256   71 80   40/  8/ 10 1021.8    4/10   3/10
41 SE CHARLESTON 1400   72 79   80/  8/ 10 1020.2    3/ 8   3/ 8

$$


USA.gov is the U.S. government's official web portal to all federal, state and local government web resources and services.